Big Bear City, CA

8:29 PM PST on December 13, 2019 (GMT -0800)
Big Bear City

Weather History for KL35 - June, 2019

Change the Weather History Date:

Friday, June 7, 2019

  Actual Average (KBUO) Record (KBUO)
Temperature  
Mean Temperature 55 °F -  
Max Temperature 69 °F 76 °F 95 °F (2001)
Min Temperature 41 °F 52 °F 48 °F (1998)
Degree Days  
Heating Degree Days 10    
Growing Degree Days 5 (Base 50)    
Moisture  
Dew Point 23 °F    
Average Humidity 32    
Maximum Humidity 66    
Minimum Humidity 8    
Precipitation  
Precipitation 0.00 in - - ()
Sea Level Pressure  
Sea Level Pressure 30.09 in    
Wind  
Wind Speed 4 mph (WSW)    
Max Wind Speed 16 mph    
Max Gust Speed 22 mph    
Visibility 10 miles    
Events      
Averages and records for this station are not official NWS values.
T = Trace of Precipitation, MM = Missing Value Source: NWS Daily Summary

Daily Weather History Graph

Daily Weather History Graph

Search for Another Location

Airport or City:

Astronomy

Jun. 07, 2019 Rise Set
Actual Time 5:35 AM PDT 7:57 PM PDT
Civil Twilight 5:06 AM PDT 8:26 PM PDT
Nautical Twilight 4:30 AM PDT 9:02 PM PDT
Astronomical Twilight 3:51 AM PDT 9:41 PM PDT
Moon 9:54 AM PDT (6/7) No Moon Set
Length of Visible Light 15h 20m
Length of Day
14h 22m
Waxing Crescent, 23% of the Moon is Illuminated
Jun 7
Waxing Crescent
Jun 9
First Quarter
Jun 17
Full
Jun 25
Last Quarter
Jul 2
New

Hourly Weather History & Observations

Time (PDT) Temp. Windchill Dew Point Humidity Pressure Visibility Wind Dir Wind Speed Gust Speed Precip Events Conditions
12:15 AM 46.4 °F - 32.0 °F 57% 30.14 in 10.0 mi Calm Calm - N/A   Clear
12:35 AM 44.6 °F - 32.0 °F 61% 30.14 in 10.0 mi Calm Calm - N/A   Clear
12:55 AM 44.6 °F - 32.0 °F 61% 30.13 in 10.0 mi Calm Calm - N/A   Clear
1:15 AM 44.6 °F - 32.0 °F 61% 30.12 in 10.0 mi Calm Calm - N/A   Clear
1:35 AM 42.8 °F - 32.0 °F 66% 30.12 in 10.0 mi Calm Calm - N/A   Clear
1:55 AM 42.8 °F - 30.2 °F 61% 30.11 in 10.0 mi Calm Calm - N/A   Clear
2:15 AM 42.8 °F - 30.2 °F 61% 30.11 in 10.0 mi Calm Calm - N/A   Clear
2:35 AM 42.8 °F - 28.4 °F 57% 30.11 in 10.0 mi Calm Calm - N/A   Clear
2:55 AM 42.8 °F - 28.4 °F 57% 30.10 in 10.0 mi Calm Calm - N/A   Clear
3:15 AM 41.0 °F - 28.4 °F 61% 30.09 in 10.0 mi Calm Calm - N/A   Clear
3:35 AM 41.0 °F - 26.6 °F 57% 30.09 in 10.0 mi Calm Calm - N/A   Clear
3:55 AM 44.6 °F 43.1 °F 28.4 °F 53% 30.09 in 10.0 mi West 3.5 mph - N/A   Clear
4:15 AM 46.4 °F - 28.4 °F 50% 30.09 in 10.0 mi Calm Calm - N/A   Clear
4:35 AM 44.6 °F - 24.8 °F 46% 30.09 in 10.0 mi Calm Calm - N/A   Clear
4:55 AM 44.6 °F - 24.8 °F 46% 30.09 in 10.0 mi Calm Calm - N/A   Clear
5:15 AM 42.8 °F - 24.8 °F 49% 30.08 in 10.0 mi Calm Calm - N/A   Clear
5:35 AM 42.8 °F - 24.8 °F 49% 30.08 in 10.0 mi Calm Calm - N/A   Clear
5:55 AM 42.8 °F - 26.6 °F 53% 30.08 in 7.0 mi Calm Calm - N/A   Clear
6:15 AM 44.6 °F 43.1 °F 26.6 °F 49% 30.08 in 10.0 mi SSW 3.5 mph - N/A   Clear
6:35 AM 55.4 °F - 26.6 °F 33% 30.08 in 10.0 mi SW 4.6 mph - N/A   Clear
6:55 AM 57.2 °F - 26.6 °F 31% 30.08 in 10.0 mi SW 4.6 mph - N/A   Clear
7:15 AM 59.0 °F - 28.4 °F 31% 30.09 in 10.0 mi WSW 3.5 mph - N/A   Clear
7:35 AM 60.8 °F - 26.6 °F 27% 30.09 in 10.0 mi WSW 6.9 mph 16.1 mph N/A   Clear
7:55 AM 60.8 °F - 26.6 °F 27% 30.09 in 10.0 mi WSW 5.8 mph - N/A   Clear
8:15 AM 62.6 °F - 26.6 °F 26% 30.09 in 10.0 mi WSW 5.8 mph - N/A   Clear
8:35 AM 62.6 °F - 26.6 °F 26% 30.10 in 10.0 mi West 15.0 mph 20.7 mph N/A   Clear
8:55 AM 62.6 °F - 26.6 °F 26% 30.10 in 10.0 mi West 10.4 mph 19.6 mph N/A   Clear
9:15 AM 62.6 °F - 21.2 °F 20% 30.10 in 10.0 mi SW 9.2 mph - N/A   Clear
9:35 AM 64.4 °F - 17.6 °F 16% 30.10 in 10.0 mi WSW 8.1 mph 16.1 mph N/A   Clear
9:55 AM 64.4 °F - 17.6 °F 16% 30.10 in 10.0 mi SW 9.2 mph 16.1 mph N/A   Clear
10:15 AM 64.4 °F - 15.8 °F 15% 30.10 in 10.0 mi WSW 9.2 mph 17.3 mph N/A   Clear
10:35 AM 66.2 °F - 19.4 °F 17% 30.10 in 10.0 mi WSW 8.1 mph 17.3 mph N/A   Clear
10:55 AM 66.2 °F - 21.2 °F 18% 30.10 in 10.0 mi West 9.2 mph 19.6 mph N/A   Clear
11:15 AM 66.2 °F - 21.2 °F 18% 30.10 in 10.0 mi WSW 10.4 mph 19.6 mph N/A   Clear
11:35 AM 68.0 °F - 19.4 °F 16% 30.10 in 10.0 mi WSW 10.4 mph - N/A   Clear
11:55 AM 68.0 °F - 17.6 °F 15% 30.10 in 10.0 mi West 12.7 mph 20.7 mph N/A   Clear
12:15 PM 68.0 °F - 14.0 °F 12% 30.10 in 10.0 mi West 13.8 mph 19.6 mph N/A   Clear
12:35 PM 69.8 °F - 12.2 °F 11% 30.10 in 10.0 mi West 13.8 mph 18.4 mph N/A   Clear
1:15 PM 69.8 °F - 15.8 °F 13% 30.09 in 10.0 mi West 12.7 mph - N/A   Clear
1:35 PM 69.8 °F - 14.0 °F 12% 30.09 in 10.0 mi West 12.7 mph 18.4 mph N/A   Clear
1:55 PM 68.0 °F - 17.6 °F 15% 30.09 in 10.0 mi West 16.1 mph 19.6 mph N/A   Clear
2:15 PM 69.8 °F - 14.0 °F 12% 30.08 in 10.0 mi West 16.1 mph 21.9 mph N/A   Clear
2:35 PM 69.8 °F - 14.0 °F 12% 30.08 in 10.0 mi West 12.7 mph 19.6 mph N/A   Clear
2:55 PM 69.8 °F - 8.6 °F 9% 30.08 in 10.0 mi SW 8.1 mph - N/A   Clear
3:15 PM 68.0 °F - 6.8 °F 9% 30.09 in 10.0 mi SSW 9.2 mph 16.1 mph N/A   Clear
3:35 PM 68.0 °F - 5.0 °F 8% 30.08 in 10.0 mi SW 10.4 mph 17.3 mph N/A   Clear
3:55 PM 68.0 °F - 10.4 °F 11% 30.08 in 10.0 mi WSW 9.2 mph - N/A   Clear
4:15 PM 68.0 °F - 6.8 °F 9% 30.08 in 10.0 mi SSW 6.9 mph 18.4 mph N/A   Clear
4:35 PM 68.0 °F - 6.8 °F 9% 30.08 in 10.0 mi SW 6.9 mph 17.3 mph N/A   Clear
4:55 PM 68.0 °F - 8.6 °F 10% 30.08 in 10.0 mi WSW 12.7 mph 17.3 mph N/A   Clear
5:15 PM 68.0 °F - 8.6 °F 10% 30.07 in 10.0 mi SW 6.9 mph 18.4 mph N/A   Clear
5:35 PM 66.2 °F - 14.0 °F 13% 30.07 in 10.0 mi West 11.5 mph 17.3 mph N/A   Clear
5:55 PM 64.4 °F - 30.2 °F 28% 30.07 in 10.0 mi WSW 5.8 mph - N/A   Clear
6:15 PM 62.6 °F - 35.6 °F 37% 30.07 in 10.0 mi WSW 5.8 mph - N/A   Clear
6:35 PM 60.8 °F - 33.8 °F 36% 30.07 in 10.0 mi SW 8.1 mph - N/A   Clear
6:55 PM 60.8 °F - 30.2 °F 31% 30.08 in 10.0 mi SW 6.9 mph - N/A   Clear
7:15 PM 60.8 °F - 26.6 °F 27% 30.08 in 10.0 mi West 9.2 mph - N/A   Clear
7:30 PM 59.0 °F - 24.8 °F 27% 30.08 in 10.0 mi West 8.1 mph - N/A   Clear
7:55 PM 55.4 °F - 21.2 °F 26% 30.08 in 10.0 mi West 6.9 mph - N/A   Clear
8:15 PM 53.6 °F - 21.2 °F 28% 30.08 in 10.0 mi West 5.8 mph - N/A   Clear
8:35 PM 53.6 °F - 21.2 °F 28% 30.08 in 10.0 mi West 3.5 mph - N/A   Clear
8:55 PM 53.6 °F - 21.2 °F 28% 30.08 in 10.0 mi West 4.6 mph - N/A   Clear
9:15 PM 51.8 °F - 21.2 °F 30% 30.08 in 10.0 mi Calm Calm - N/A   Clear
9:35 PM 50.0 °F - 23.0 °F 35% 30.08 in 10.0 mi WSW 3.5 mph - N/A   Clear
9:55 PM 50.0 °F - 24.8 °F 37% 30.09 in 10.0 mi Calm Calm - N/A   Clear
10:15 PM 51.8 °F - 26.6 °F 38% 30.09 in 10.0 mi WSW 3.5 mph - N/A   Clear
10:35 PM 51.8 °F - 28.4 °F 41% 30.10 in 10.0 mi WSW 3.5 mph - N/A   Clear
10:55 PM 51.8 °F - 28.4 °F 41% 30.09 in 10.0 mi WSW 5.8 mph - N/A   Clear
11:15 PM 51.8 °F - 28.4 °F 41% 30.08 in 10.0 mi WSW 3.5 mph - N/A   Clear
11:35 PM 50.0 °F - 30.2 °F 47% 30.08 in 10.0 mi WSW 3.5 mph - N/A   Clear
11:55 PM 50.0 °F - 30.2 °F 47% 30.08 in 10.0 mi WSW 3.5 mph - N/A   Clear